Weather observations for the past three days for
Kearney, Kearney Municipal Airport
Imperial (Metric)
Date Time (cdt) Wind (mph) Vis. (mi.) Weather Sky Cond. Temperature (ºF) Relative Humidity Wind Chill (°F) Heat Index (°F) Pressure Precipitation (in)
Air Dwpt 6 hour altimeter (in) sea level (mb) 1 hr 3 hr 6 hr
Max. Min.
15 03:56 N 5 9.00 Fair CLR 73.9 72 94% 29.87 1008.9
15 02:56 Calm 10.00 Fair CLR 73 72 96% 29.89 1009.9
15 01:56 Calm 10.00 Fair CLR 75 73 94% 73 29.91 1010.4
15 00:56 SE 7 10.00 Fair CLR 77 73.9 88 75.9 90% 78 29.93 1011.0
14 23:56 SE 9 10.00 Fair CLR 77 73.9 90% 78 29.94 1011.7
14 22:56 E 7 10.00 Fair CLR 75.9 73 91% 76 29.96 1012.3
14 21:56 E 7 10.00 Fair CLR 77 73.9 90% 78 29.95 1012.2
14 20:56 E 7 10.00 Fair CLR 82 73.9 77% 88 29.94 1012.0
14 19:56 E 5 10.00 Fair CLR 86 75 70% 95 29.95 1012.0
14 18:56 E 7 10.00 Fair CLR 88 73 91 84.9 61% 96 29.95 1012.1
14 17:56 SE 3 10.00 Fair CLR 90 70 52% 95 29.96 1012.2
14 16:56 SE 6 10.00 Fair CLR 91 70 50% 97 29.97 1012.9
14 15:56 S 9 10.00 Fair CLR 91 70 50% 97 29.98 1012.9
14 14:56 S 10 10.00 Fair CLR 90 68 48% 94 29.99 1013.1
14 13:56 S 9 10.00 Fair CLR 89.1 66.9 48% 92 29.99 1013.1
14 12:56 S 7 10.00 Fair CLR 86 64.9 86 66.9 49% 88 30 1013.8
14 11:56 SE 10 10.00 Fair CLR 82.9 66 57% 85 30.02 1014.4
14 10:56 SE 9 10.00 Fair CLR 79 64 60% 81 30.02 1014.6
14 09:56 E 9 10.00 Fair CLR 75.9 63 64% 78 30.05 1015.7
14 08:56 NE 13 10.00 Fair CLR 72 63 73% 30.08 1016.8
14 07:56 N 9 10.00 Fair CLR 69.1 63 81% 30.07 1016.3
14 06:56 N 15 10.00 Fair CLR 66.9 62.1 77 64.9 84% 30.05 1015.4
14 05:56 N 23 G 30 10.00 Fair and Breezy CLR 73 69.1 87% 30.02 1014.0
14 04:56 SE 7 10.00 Fair CLR 66.9 61 81% 29.92 1010.8
14 03:56 Calm 10.00 Fair CLR 72 63 73% 29.92 1011.0
14 02:56 Calm 10.00 Fair CLR 72 66 82% 29.93 1011.3
14 01:56 Calm 10.00 Fair CLR 75.9 64.9 69% 78 29.95 1011.8
14 00:56 S 12 10.00 Fair CLR 75 69.1 91 75 82% 75 29.95 1012.0
13 23:56 E 7 9.00 Fair CLR 75.9 75 97% 75 29.96 1012.2
13 22:56 NE 7 10.00 Fair CLR 77 75 94% 78 29.97 1012.5
13 21:56 NE 7 10.00 Fair CLR 79 75.9 90% 83 29.96 1012.3
13 20:56 NE 8 10.00 Fair CLR 81 75 82% 87 29.96 1012.6
13 19:56 N 7 10.00 Fair CLR 87.1 75 67% 97 29.96 1012.3
13 18:56 N 6 10.00 Fair CLR 91 68 93 84.9 47% 95 29.96 1012.4
13 17:56 Calm 10.00 Fair CLR 91.9 66 43% 95 29.96 1012.5
13 16:56 S 6 10.00 Fair CLR 91.9 68 46% 96 29.97 1012.5
13 15:56 S 13 10.00 Fair CLR 91 68 47% 95 29.97 1012.7
13 14:56 Calm 10.00 Fair CLR 89.1 68 50% 93 29.97 1012.9
13 13:56 SE 10 10.00 Fair CLR 86 69.1 57% 90 29.96 1012.6
13 12:56 S 5 10.00 Fair CLR 86 66 87.1 66 51% 88 30.02 1014.4
13 11:56 S 5 10.00 Fair CLR 86 64 48% 87 29.99 1013.5
13 10:56 S 13 10.00 Fair CLR 84 66 55% 86 30 1013.6
13 09:56 SE 9 10.00 Fair CLR 80.1 68 67% 83 30.01 1014.1
13 08:56 E 8 6.00 Fog/Mist CLR 73.9 71.1 91% 30.03 1014.9
13 07:56 N 9 5.00 Fog/Mist CLR 71.1 70 96% 30.03 1014.8
13 06:56 Calm 0.50 Fog VV002 66 66 72 66 100% 29.99 1013.6
13 05:56 Calm 2.00 Fog/Mist FEW001 66 66 100% 29.97 1013.0
13 04:56 NE 6 0.75 Fog/Mist BKN001 66.9 66 97% 29.97 1012.7
13 03:56 E 5 2.00 Fog/Mist FEW003 68 68 100% 29.96 1012.4
13 02:56 E 5 4.00 Fog/Mist CLR 69.1 68 96% 29.97 1012.6
13 01:56 SE 3 7.00 Fair CLR 72 71.1 97% 29.97 1012.7
13 00:56 E 5 10.00 Fair CLR 72 71.1 87.1 72 97% 29.98 1013.1
12 23:56 SE 5 10.00 Fair CLR 73.9 72 94% 29.98 1013.4
12 22:56 E 6 10.00 Fair CLR 75.9 73 91% 76 29.99 1013.5
12 21:56 E 7 10.00 Fair CLR 78.1 72 82% 80 29.98 1013.3
12 20:56 SE 8 10.00 Fair CLR 80.1 73 79% 84 29.97 1013.0
12 19:56 E 7 10.00 Fair CLR 82.9 72 70% 88 29.97 1012.9
12 18:56 S 12 10.00 Fair CLR 86 70 91 84.9 59% 91 29.95 1012.4
12 17:56 S 18 10.00 A Few Clouds FEW100 86 71.1 61% 92 29.96 1012.5
12 16:56 S 8 10.00 Fair CLR 87.1 72 61% 94 29.99 1013.7
12 15:56 SE 10 10.00 Fair CLR 91 71.1 52% 98 29.99 1013.5
12 14:56 S 14 10.00 Fair CLR 90 71.1 54% 96 29.98 1013.0
12 13:56 S 14 10.00 Fair CLR 89.1 70 53% 94 29.99 1013.3
12 12:56 S 15 10.00 Fair CLR 86 71.1 86 66 61% 92 29.99 1013.6
12 11:56 S 13 10.00 Fair CLR 81 71.1 72% 85 30 1013.9
12 10:56 S 9 10.00 Fair CLR 78.1 70 76% 80 30.04 1015.3
12 09:56 S 5 10.00 A Few Clouds FEW007 73.9 69.1 85% 30.06 1016.2
12 08:56 SE 10 8.00 Overcast OVC005 71.1 68 90% 30.03 1015.3
12 07:56 E 7 6.00 Fog/Mist SCT005 68 66 93% 30.03 1015.4
12 06:56 Calm 5.00 Fog/Mist CLR 66 64.9 70 64.9 96% 30.04 1015.4
12 05:56 E 5 7.00 Fair CLR 66 64.9 96% 30.02 1014.8
12 04:56 SE 5 8.00 Fair CLR 66 64.9 96% 30 1014.0
Date Time (cdt) Wind (mph) Vis. (mi.) Weather Sky Cond. Air Dwpt Max. Min. Relative Humidity Wind Chill (°F) Heat Index (°F) altimeter (in) sea level (mb) 1 hr 3 hr 6 hr
6 hour
Temperature (ºF) Pressure Precipitation (in)